C/2016 T1 ( Matheny )

Japanese version
Home page
Updated on December 31, 2016

---------------------------------------------------------------------

* Profile

Discovery Date October 6, 2016
Magnitude 18.4 mag
Discoverer Rose G. Matheny (Mount Lemmon Survey)

* Pictures

* Orbital Elements

Epoch 2017 Feb. 16.0 TT = JDT 2457800.5
T 2017 Feb. 1.98925 TT                                  MPCW
q   2.2975742            (2000.0)            P               Q
z  +0.0085811      Peri.  137.48991     -0.05007444     -0.76803003
 +/-0.0006677      Node    56.22823     -0.98934098     -0.04937516
e   0.9802842      Incl.  129.82035     +0.13673689     -0.63850761
From 104 observations 2016 Oct. 6-22, mean residual 0".5.

* Magnitudes Graph

        m1 = 12.5 + 5 log d + 10.0 log r

---------------------------------------------------------------------

The orbital elements are published on M.P.E.C. 2016-V116.
The magnitudes graphs are made with Comet for Windows.

---------------------------------------------------------------------

Copyright(C) Seiichi Yoshida (comet@aerith.net). All rights reserved.